This demonstration page uses our WeatherBlox Daily Observations layout. Learn more.

40.92945, -100.16068

Hourly Observations for February 8, 2019

Temp ( °F °C ) Dew Point ( °F °C ) Humidity (%) Winds ( mph kmh ) Pressure ( in mb ) Visibility ( mi km ) Precip ( " mm )
12:15 am 00:15 Clear -6 -21.2 -12 -24.7 74 74 WNW 3 6 30.74 1041 10 16.0934 0 0
12:35 am 00:35 Clear -7 -21.6 -13 -25.1 73 73 W 7 11 30.76 1041 10 16.0934 0 0
12:55 am 00:55 Clear -6 -21 -12 -24.4 74 74 W 8 13 30.76 1042 10 16.0934 0 0
1:15 am 01:15 Clear -5 -20.6 -12 -24.2 73 73 WNW 7 11 30.75 1041 10 16.0934 0 0
1:35 am 01:35 Clear -6 -21.3 -13 -24.9 73 73 NW 7 11 30.76 1042 10 16.0934 0 0
1:55 am 01:55 Clear -5 -20.8 -12 -24.3 74 74 NNW 5 7 30.76 1042 10 16.0934 0 0
2:15 am 02:15 Clear -8 -22.2 -14 -25.5 75 75 NW 5 7 30.78 1042 10 16.0934 0 0
2:35 am 02:35 Clear -6 -21.2 -13 -25.1 71 71 Calm 30.77 1042 10 16.0934 0 0
2:55 am 02:55 Clear -6 -21.3 -13 -24.8 74 74 NW 5 7 30.77 1042 10 16.0934 0 0
3:55 am 03:55 Clear -9 -22.6 -15 -26 74 74 N 5 7 30.8 1043 10 16.0934 0 0
4:15 am 04:15 Clear -8 -22.3 -14 -25.3 77 77 NW 3 6 30.79 1043 10 16.0934 0 0
4:35 am 04:35 Clear -9 -22.7 -15 -26.2 73 73 Calm 30.8 1043 10 16.0934 0 0
4:55 am 04:55 Clear -9 -22.6 -15 -26.2 73 73 Calm 30.8 1043 10 16.0934 0 0
5:15 am 05:15 Clear -8 -22 -14 -25.4 74 74 Calm 30.8 1043 10 16.0934 0 0
5:35 am 05:35 Clear -7 -21.5 -13 -25.1 73 73 Calm 30.78 1042 10 16.0934 0 0
5:55 am 05:55 Clear -8 -22 -14 -25.3 75 75 Calm 30.79 1043 10 16.0934 0 0
6:15 am 06:15 Clear -8 -22.2 -14 -25.4 75 75 Calm 30.78 1042 10 16.0934 0 0
6:35 am 06:35 Clear -8 -22.2 -14 -25.3 76 76 Calm 30.78 1042 10 16.0934 0 0
6:55 am 06:55 Clear -7 -21.6 -13 -25.1 73 73 Calm 30.79 1043 10 16.0934 0 0
7:15 am 07:15 Clear -8 -22 -13 -25.1 76 76 Calm 30.79 1043 10 16.0934 0 0
7:35 am 07:35 Clear -9 -22.5 -14 -25.8 75 75 Calm 30.79 1043 10 16.0934 0 0
7:55 am 07:55 Sunny -9 -22.6 -14 -25.8 75 75 NE 3 6 30.8 1043 10 16.0934 0 0
8:15 am 08:15 Sunny -7 -21.6 -12 -24.7 76 76 Calm 30.8 1043 10 16.0934 0 0
8:35 am 08:35 Sunny -5 -20.4 -10 -23.6 76 76 Calm 30.8 1043 10 16.0934 0 0
8:55 am 08:55 Sunny -2 -19 -8 -22.2 76 76 S 3 6 30.8 1043 10 16.0934 0 0
9:15 am 09:15 Sunny 0 -17.9 -6 -20.9 78 78 SE 3 6 30.78 1042 10 16.0934 0 0
9:35 am 09:35 Sunny 3 -16.1 -3 -19.6 75 75 SE 5 7 30.77 1042 10 16.0934 0 0
9:55 am 09:55 Sunny 6 -14.7 -2 -19 70 70 Calm 30.76 1042 10 16.0934 0 0
10:15 am 10:15 Sunny 8 -13.6 -1 -18.1 69 69 SSE 6 9 30.74 1041 10 16.0934 0 0
10:35 am 10:35 Sunny 11 -11.7 2 -16.5 68 68 SSE 8 13 30.73 1041 10 16.0934 0 0
10:55 am 10:55 Sunny 14 -10.1 3 -16.1 62 62 S 10 17 30.71 1040 10 16.0934 0 0
11:15 am 11:15 Sunny 15 -9.2 4 -15.5 61 61 SSE 8 13 30.71 1040 10 16.0934 0 0
11:35 am 11:35 Sunny 16 -8.7 5 -15.2 60 60 SSE 9 15 30.7 1040 10 16.0934 0 0
11:55 am 11:55 Sunny 17 -8.2 6 -14.7 60 60 SSE 10 17 30.68 1039 10 16.0934 0 0
12:15 pm 12:15 Sunny 19 -7.5 7 -13.9 61 61 SSE 9 15 30.66 1038 10 16.0934 0 0
12:35 pm 12:35 Sunny 19 -7.2 8 -13.6 61 61 SSE 12 19 30.64 1038 10 16.0934 0 0
12:55 pm 12:55 Sunny 21 -6 8 -13.5 56 56 SSE 10 17 30.62 1037 10 16.0934 0 0
1:15 pm 13:15 Sunny 21 -6.1 8 -13.6 56 56 SSE 15 24 30.6 1036 10 16.0934 0 0
1:35 pm 13:35 Sunny 22 -5.7 9 -13 57 57 SSE 12 19 30.6 1036 10 16.0934 0 0
1:55 pm 13:55 Sunny 23 -5.2 10 -12.3 58 58 S 15 24 30.59 1036 10 16.0934 0 0
2:15 pm 14:15 Sunny 23 -4.9 11 -11.7 59 59 SSE 17 28 30.58 1036 10 16.0934 0 0
2:35 pm 14:35 Sunny 24 -4.5 12 -11.3 59 59 S 14 22 30.56 1035 10 16.0934 0 0
2:55 pm 14:55 Sunny 25 -3.7 12 -11 57 57 S 18 30 30.55 1034 10 16.0934 0 0
3:15 pm 15:15 Sunny 27 -3 12 -10.9 55 55 S 15 24 30.54 1034 10 16.0934 0 0
3:35 pm 15:35 Sunny 27 -3 13 -10.7 56 56 SSE 16 26 30.53 1034 10 16.0934 0 0
3:55 pm 15:55 Sunny 27 -2.7 13 -10.6 55 55 S 16 26 30.53 1034 10 16.0934 0 0
4:15 pm 16:15 Sunny 28 -2.5 14 -10.2 56 56 S 14 22 30.51 1033 10 16.0934 0 0
4:35 pm 16:35 Sunny 28 -2.5 14 -10.2 56 56 S 17 28 30.51 1033 10 16.0934 0 0
4:55 pm 16:55 Sunny 28 -2.5 14 -10.1 56 56 SSE 14 22 30.5 1033 10 16.0934 0 0
5:15 pm 17:15 Sunny 28 -2.5 13 -10.5 55 55 S 17 28 30.5 1033 10 16.0934 0 0
5:35 pm 17:35 Sunny 26 -3.1 13 -10.5 57 57 SSE 15 24 30.51 1033 10 16.0934 0 0
6:15 pm 18:15 Clear 25 -4.1 12 -11.2 58 58 SE 13 20 30.51 1033 10 16.0934 0 0
6:35 pm 18:35 Clear 24 -4.5 11 -11.6 58 58 SSE 12 19 30.52 1034 10 16.0934 0 0
6:55 pm 18:55 Clear 23 -4.8 11 -11.7 59 59 SE 14 22 30.53 1034 10 16.0934 0 0
7:15 pm 19:15 Clear 23 -5 10 -12 58 58 SSE 15 24 30.54 1034 10 16.0934 0 0
7:35 pm 19:35 Clear 22 -5.5 10 -12.1 60 60 SE 13 20 30.54 1034 10 16.0934 0 0
7:55 pm 19:55 Clear 21 -6.1 10 -12.1 63 63 SE 14 22 30.56 1035 10 16.0934 0 0
8:15 pm 20:15 Clear 21 -6.1 10 -12.2 62 62 SE 16 26 30.57 1035 10 16.0934 0 0
8:35 pm 20:35 Clear 21 -6.2 10 -12 64 64 SE 13 20 30.57 1035 10 16.0934 0 0
8:55 pm 20:55 Clear 19 -7 10 -12 68 68 SE 13 20 30.57 1035 10 16.0934 0 0
9:15 pm 21:15 Clear 19 -7 11 -11.9 68 68 SE 16 26 30.56 1035 10 16.0934 0 0
9:35 pm 21:35 Clear 19 -7.3 10 -12 69 69 SE 15 24 30.56 1035 10 16.0934 0 0
9:55 pm 21:55 Clear 19 -7.2 10 -12 69 69 SE 17 28 30.55 1035 10 16.0934 0 0
10:15 pm 22:15 Clear 19 -7 10 -12 68 68 SE 21 33 30.54 1034 10 16.0934 0 0
10:35 pm 22:35 Clear 19 -7.5 10 -12.2 69 69 SE 18 30 30.56 1035 10 16.0934 0 0
10:55 pm 22:55 Clear 18 -7.6 10 -12.3 69 69 SE 21 33 30.55 1034 10 16.0934 0 0
11:15 pm 23:15 Clear 18 -7.7 10 -12.4 69 69 SE 20 31 30.54 1034 10 16.0934 0 0
11:35 pm 23:35 Clear 18 -7.7 10 -12.5 69 69 SE 18 30 30.54 1034 10 16.0934 0 0
11:55 pm 23:55 Clear 18 -7.7 10 -12.5 69 69 SE 20 31 30.54 1034 10 16.0934 0 0

Powered by AerisWeather